Regional Weather Roundup
Issued by NWS Grand Forks, ND

Home | Current Version | Previous Version | Graphics & Text | Print | Product List | Glossary On
Versions: 1 2 3 4 5 6 7 8 9 10 11 12 13 14 15 16 17 18 19 20 21 22 23 24 25 26 27 28 29 30 31 32 33 34 35 36 37 38 39 40 41 42 43 44 45 46 47 48 49 50
000
ASUS43 KFGF 012031
RWRFGF
PRAIRIE TO PINES  WEATHER ROUNDUP
NATIONAL WEATHER SERVICE EASTERN NORTH DAKOTA/GRAND FORKS ND
300 PM CDT WED OCT 01 2014

 **SATELLITE DATA USED TO AUGMENT SKY COVER AT AUTOMATED STATIONS**
 *****  WEATHER ACROSS EASTERN NORTH DAKOTA  *****

CITY           SKY/WX    TMP DP  RH WIND       PRES   REMARKS
GRAND FORKS    PTSUNNY   66  52  60 SW16G24   29.59R
GRAND FRKS AFB CLOUDY    65  55  70 W15G23    29.60R
GRAND FRKS NWS   N/A     63 N/A N/A SW12        N/A
DEVILS LAKE    CLOUDY    61  50  67 W21G28    29.59R
FARGO          PTSUNNY   71  51  49 SW22      29.63S
WAHPETON ARPT  PTCLDY    68  46  45 W15       29.66F
$$

 ***** WEATHER ACROSS CENTRAL AND WESTERN NORTH DAKOTA  *****

CITY           SKY/WX    TMP DP  RH WIND       PRES   REMARKS
BISMARCK       PTSUNNY   63  50  62 W17       29.72F
MINOT          CLOUDY    55  51  86 W15       29.65R
JAMESTOWN      CLOUDY    60  50  69 W17       29.66S
MINOT AFB      PTSUNNY   57  52  82 NW25G31   29.64S
GARRISON         N/A     55  51  86 W13G22    29.69R
WILLISTON      CLOUDY    57  46  66 NW21G30   29.75R
DICKINSON      CLOUDY    54  46  74 W13       29.76S
HETTINGER      CLOUDY    52  46  80 W18       29.83R
$$

 *****  OTHER AIRPORT OBSERVATIONS IN OUR AREA  *****

CITY           SKY/WX    TMP DP  RH WIND       PRES   REMARKS
WALHALLA         N/A     63  54  72 W13G22    29.54S
GRAFTON AIRPOR MOCLDY    64  54  68 W18G24    29.56R
VALLEY CITY AR CLOUDY    61  52  72 W18G24    29.66S
CANDO          CLOUDY    59  52  77 W18G28    29.60R
CAVALIER APRT  MOCLDY    63  50  63 W15G24    29.55R
GWINNER        MOCLDY    66  50  55 W15G21    29.70R
ROLLA          CLOUDY    59  52  77 W14G23    29.58R
 ***** THE ABOVE OBSERVATIONS ARE NON NWS ARE NOT QUALITY
       CONTROLLED AND MAY MIS-REPORT RAIN FOR SNOW...
$$

  *****  WEATHER ACROSS NORTHERN MINNESOTA  *****

CITY           SKY/WX    TMP DP  RH WIND       PRES   REMARKS
FLAG ISLAND    PTSUNNY   61  55  82 S24       29.54S
WARROAD        CLOUDY    63  57  82 S7        29.57R
ROSEAU         PTSUNNY   66  55  68 SW22      29.56R
HALLOCK        MOSUNNY   66  54  63 W20       29.54R
THF RVR FALLS  CLOUDY    64  52  63 SW20      29.59S
BAUDETTE       CLOUDY    58  52  80 S8G21     29.61F
WASKISH        CLOUDY    57  54  88 SE10G18   29.65R
CROOKSTON      PTSUNNY   66  52  59 W20G28    29.61R
STEPHEN NDAWN    N/A     66  55  68 SW13        N/A
GREENBUSH NDAW   N/A     66  54  63 SW13        N/A
$$
  *****  WEATHER ACROSS CENTRAL AND WEST MINNESOTA  *****

CITY           SKY/WX    TMP DP  RH WIND       PRES   REMARKS
FOSSTON        PTSUNNY   64  55  72 S15       29.63R
BEMIDJI        CLOUDY    56  52  85 S13G18    29.67R
PARK RAPIDS    CLOUDY    55  52  89 SE14      29.69F
ELBOW LAKE     FAIR      71  53  53 W13       29.67S
WADENA         CLOUDY    57  54  88 SE9       29.69F FOG
DETROIT LAKES  PTSUNNY   64  57  77 S12       29.66S
MOORHEAD       NOT AVBL
FERGUS FALLS   PTSUNNY   72  48  43 W15       29.66S
MORRIS MN      MOSUNNY   72  61  68 SE6       29.67S
STAPLES        CLOUDY    54  52  94 SE12      29.71S FOG
$$
  *****  WEATHER ELSEWHERE ACROSS MINNESOTA  *****

CITY           SKY/WX    TMP DP  RH WIND       PRES   REMARKS
DULUTH         LGT RAIN  50  47  89 SE10      29.79S FOG
INTRNTL FALLS  CLOUDY    53  49  86 S8        29.68F
ELY            LGT RAIN  48  46  93 SE10      29.75F
CLOQUET        LGT RAIN  50  48  93 SE6       29.78F
WHEATON        SUNNY     70  52  52 W12       29.68F
BRAINERD       CLOUDY    52  50  93 S10       29.74F
HIBBING        LGT RAIN  50  48  93 S6        29.76S
ALEXANDRIA     CLOUDY    60  57  89 SE12      29.71F
SAINT CLOUD    CLOUDY    57  52  83 S10       29.75F
MINNEAPOLIS    CLOUDY    54  52  93 SE7       29.78F
$$

  *****  WEATHER ACROSS SOUTH DAKOTA  *****

CITY           SKY/WX    TMP DP  RH WIND       PRES   REMARKS
SIOUX FALLS    PTSUNNY   72  57  59 VRB5      29.72F
BROOKINGS      NOT AVBL
WATERTOWN      SUNNY     70  51  51 W14       29.71S
HURON          SUNNY     74  48  39 NW12G21   29.71F
SISSETON         N/A     72  51  47 NW12G21   29.67S
ABERDEEN       PTSUNNY   68  51  54 NW14G24   29.71S
MITCHELL       MOSUNNY   75  50  41 NW12      29.73S
PIERRE         PTSUNNY   69  48  47 W14       29.76F
MOBRIDGE       CLOUDY    64  49  57 W16G23    29.75R
RAPID CITY     RAIN      52  46  80 N16       29.87S
$$

  *****  SOME WEATHER IN NEARBY STATES *****

CITY           SKY/WX    TMP DP  RH WIND       PRES   REMARKS
GLASGOW MT     PTSUNNY   57  43  59 NW17      29.82S
GREAT FALLS MT PTSUNNY   58  34  40 SW18G26   29.92F
CHEYENNE WY    LGT RAIN  42  36  79 NW13G18   29.95R
SCOTTSBLUFF NE MOSUNNY   66  43  43 VRB7      29.84F
OMAHA NE       PTSUNNY   73  62  68 SE6       29.72F
DES MOINES IA  CLOUDY    70  62  76 S6        29.75F
DAVENPORT IA   NOT AVBL
CHICAGO IL     PTSUNNY   70  52  52 E14       29.91F
EAU CLAIRE WI  LGT RAIN  53  51  93 SE7       29.82S FOG
LA CROSSE WI   CLOUDY    62  54  74 CALM      29.83F
$$

  *****  SOME NATIONAL WEATHER *****

CITY           SKY/WX    TMP DP  RH WIND       PRES   REMARKS
LA GUARDIA NY  CLOUDY    64  58  80 NE10      30.03S
RALEIGH NC     PTSUNNY   78  61  55 CALM      30.00S
ATLANTA GA     MOSUNNY   85  57  38 E7        29.98F
NEW ORLEANS LA PTSUNNY   84  73  69 SE9       29.89F HX  90
OKLAHOMA CITY  MOSUNNY   92  64  39 S18G28    29.70F HX  93
ALBUQUERQUE NM MOSUNNY   74  32  21 SW9G20    29.93F
SALT LAKE CITY MOSUNNY   56  35  45 W10       30.10S
LOS ANGELES CA SUNNY     74  62  66 W9        29.80F
BOISE ID       SUNNY     59  38  45 W10       30.15F
SEATTLE WA     MOSUNNY   60  49  66 W7        30.22F
$$

*** WEATHER ACROSS MANITOBA...SASKATCHEWAN AND ONTARIO ***
                ***ONTARIO***

CITY           SKY/WX    TMP DP  RH WIND       PRES   REMARKS
GERALDTON      DRIZZLE   52  50  93 S14G20    29.89
THUNDER BAY    LGT RAIN  50  48  93 E6        29.86S
SIOUX LOOKOUT  CLOUDY    54  50  87 S8        29.68F
TORONTO        DRIZZLE   59  57  94 E6        30.08  FOG
BIG TROUT LK   SUNNY     61  48  63 S17       29.56F
PICKLE LAKE    CLOUDY    54  46  76 S13G26    29.67F
DRYDEN         CLOUDY    54  50  87 S18G26    29.65F
KENORA         CLOUDY    59  54  82 S18G29    29.56F
$$
                *** MANITOBA***

CITY           SKY/WX    TMP DP  RH WIND       PRES   REMARKS
BRANDON        PTSUNNY   59  52  77 NW25G33   29.52R
DAUPHIN        CLOUDY    57  52  82 W18G29    29.44R
ISLAND LAKE    LGT RAIN  55  52  88 SE14G21   29.37F
PILOT MOUND      N/A     59  50  72 W12G20      N/A
THE PAS        LGT RAIN  52  50  93 NW20G26   29.35
THOMPSON       LGT RAIN N/A N/A N/A E5          N/A
WINNIPEG       CLOUDY    59  52  77 SW10G24   29.50S
LYNN LAKE      LGT RAIN  48  48 100 N12       29.38F
CHURCHILL      CLOUDY    46  43  87 SE15      29.47F
GILLAM         CLOUDY    52  48  87 E5        29.36F
$$
                ***SASKATCHEWAN***

CITY           SKY/WX    TMP DP  RH WIND       PRES   REMARKS
ESTEVAN        CLOUDY    52  50  93 NW16      29.68R
KINDERSLEY     MOSUNNY   59  30  33 NW22G32   29.75F
LLOYDMINSTER   PTSUNNY   55  32  41 NW15G28   29.70F
PRINCE ALBERT  PTSUNNY   55  39  54 NW18G28   29.60S
REGINA         CLOUDY    54  45  71 NW24G31   29.67R
YORKTON        CLOUDY    54  46  76 NW22G33   29.54R
N. BATTLEFORD  MOSUNNY   59  37  44 NW18G25   29.70F
LA RONGE       CLOUDY    46  39  76 NW14G22   29.58
SASKATOON      MOSUNNY   59  39  47 NW23G31   29.67S
SWIFT CURRENT  MOSUNNY   57  36  44 NW21G33   29.76F
$$
NOTE: THESE ARE AUTOMATED STATIONS WITH LIMITED QUALITY CONTROL
      "FAIR" INDICATES FEW OR NO CLOUDS BELOW 12,000 FEET WITH NO
      SIGNIFICANT WEATHER AND/OR OBSTRUCTIONS TO VISIBILITY.
      SKY/WX - SKY CONDITION AND SIGNIFICANT WEATHER.
      TMP - AIR TEMPERATURE.    DP   - DEWPOINT TEMPERATURE.
      RH  - RELATIVE HUMIDITY.  PRES - PRESSURE.
      HX  - HEAT INDEX.         WCI  - WIND CHILL INDEX.
$



USA.gov is the U.S. government's official web portal to all federal, state and local government web resources and services.